Regional Weather Roundup
Issued by NWS Upton, NY

Current Version | Previous Version | Graphics & Text | Print | Product List | Glossary Off
Versions: 1 2 3 4 5 6 7 8 9 10 11 12 13 14 15 16 17 18 19 20 21 22 23 24 25 26 27

000
ASUS41 KOKX 102108
RWROKX

REGIONAL WEATHER ROUNDUP
NATIONAL WEATHER SERVICE NEW YORK NY
400 PM EST SAT DEC 10 2016

NOTE: "FAIR" INDICATES FEW OR NO CLOUDS BELOW 12,000 FEET WITH NO
SIGNIFICANT WEATHER AND/OR OBSTRUCTIONS TO VISIBILITY.

NYZ071-072-176-178-NJZ106-104-102200-
NEW YORK CITY METRO AREA

CITY           SKY/WX    TMP DP  RH WIND       PRES   REMARKS
Central Park   MOCLDY    35  15  44 W10G17    30.37R WCI  27
Wall St Helipt CLOUDY    38  20  48 W9G24     30.37S WCI  31
Bronx Bot Gard   N/A     36  18  48 W5        30.35S WCI  32
LaGuardia APRT MOCLDY    36  17  46 NW14      30.36R WCI  27
Kennedy INTL   MOCLDY    36  14  40 W15G23    30.37R WCI  27
Breezy Point     N/A     32 N/A N/A W12         N/A  WCI  23
Newark/Liberty PTCLDY    35  15  44 W15       30.37R WCI  25
Teterboro      MOCLDY    33  17  51 NW8       30.35R WCI  26
$$

NYZ177-179-078>081-102200-
LONG ISLAND NEW YORK

CITY           SKY/WX    TMP DP  RH WIND       PRES   REMARKS
Jones Beach      N/A     34 N/A N/A NW14        N/A  WCI  24
Matinecock PT  NOT AVBL
Farmingdale    CLEAR     34  17  50 NW6       30.36R WCI  29
MacArthur/ISP  PTCLDY    34  16  47 W12       30.35R WCI  25
Shirley        MOCLDY    33  16  49 NW9       30.36R WCI  25
Westhampton    NOT AVBL
Southampton      N/A     34  21  60 NW8       30.33R WCI  27
Bridgehampton  NOT AVBL
East Hampton     N/A     32  13  46 NW7       30.34R WCI  25
Montauk          N/A     33  14  45 W13G22    30.34R WCI  24
$$

NYZ052-065-067-102200-
HUDSON VALLEY

CITY           SKY/WX    TMP DP  RH WIND       PRES   REMARKS
White Plains   PTCLDY    31  16  54 W7        30.32R WCI  24
Newburgh       PTCLDY    30  18  59 W12       30.34S WCI  21
Montgomery     CLEAR     31  16  54 W6        30.32R WCI  25
Poughkeepsie   MOCLDY    32  13  45 VRB5      30.33R WCI  27
Albany         PTCLDY    27  11  51 NW14      30.35R WCI  16
$$

NJZ001-105-106-008-010-013-015-019>022-104-102200-
NEW JERSEY

CITY           SKY/WX    TMP DP  RH WIND       PRES   REMARKS
Newark/Liberty PTCLDY    35  15  44 W15       30.37R WCI  25
Teterboro      MOCLDY    33  17  51 NW8       30.35R WCI  26
Caldwell       MOCLDY    34  16  47 VRB7      30.36R WCI  28
Somerville     MOCLDY    33  16  49 W8G18     30.36R WCI  26
Linden         FLURRIES  33  16  49 W8        30.38R WCI  27
Sussex         CLOUDY    29  22  75 CALM      30.33R
Andover          N/A     31  17  56 NW8       30.34R WCI  23
Trenton        CLOUDY    35  15  44 NW8       30.37R WCI  29
Millville      CLOUDY    36  16  44 W14       30.41R WCI  27
Atlantic City  MOCLDY    35  14  42 W7        30.40R WCI  29
Wrightstown    NOT AVBL
Toms River     MOCLDY    34  16  47 NW7       30.39R WCI  28
Belmar         MOCLDY    33  16  49 W9        30.38R WCI  25
$$

PAZ047>061-062-071-102200-
EASTERN PENNSYLVANIA

CITY           SKY/WX    TMP DP  RH WIND       PRES   REMARKS
Philadelphia   CLOUDY    37  12  35 W17       30.40R WCI  27
Allentown      CLEAR     33  14  45 W13       30.37R WCI  24
Scranton       LGT SNOW  27  21  78 SW12      30.32R WCI  17
$$

CTZ002-004>006-009-010-012-RIZ004-006-007-MAZ004-011-015-102200-
SOUTHERN NEW ENGLAND
 IN CT

CITY           SKY/WX    TMP DP  RH WIND       PRES   REMARKS
Bradley INTL   PTCLDY    29   8  41 NW15      30.33R WCI  18
Hartford       CLEAR     30  10  43 W9        30.35R WCI  22
Danbury        MOCLDY    30  14  51 W7        30.34R WCI  23
Wtrbury/Oxford PTCLDY    28  10  47 W9        30.32R WCI  20
Bridgeport     CLEAR     34  14  43 W9        30.35R WCI  27
Meriden        CLEAR     32  10  40 NW6       30.35R WCI  26
New Haven      PTCLDY    32  11  41 NW8       30.35R WCI  25
Chester          N/A     30   9  40 W6G15     30.33R WCI  24
Groton         CLEAR     33  10  38 NW14      30.34R WCI  23
Wilimantic     PTCLDY    31   8  38 NW10G21   30.33R WCI  22

 IN RI

CITY           SKY/WX    TMP DP  RH WIND       PRES   REMARKS
Providence     CLEAR     29   6  38 NW7       30.32R WCI  22
Block Island   CLEAR     31  14  49 NW12G20   30.32R WCI  22
Westerly       CLEAR     31   8  38 VRB7      30.33R WCI  24
 IN MA

CITY           SKY/WX    TMP DP  RH WIND       PRES   REMARKS
Boston         PTCLDY    28   4  35 NW15      30.31R WCI  16
Worcester      CLEAR     24   2  38 W14       30.24R WCI  12
Westfield      CLEAR     28   7  41 NW15G24   30.32R WCI  16
Provincetown   CLOUDY    29  13  51 NW16      30.29R WCI  17
Nantucket      CLEAR     28   9  44 NW10      30.29R WCI  19
$$

ANZ330-335-338-340-345-350-353-355-102200-
COASTAL MARINE OBSERVATIONS


STATION/POSITION TIME  SKY/WX   TEMP    WIND        PRES    VSBY  WAVE
                                AIR SEA DIR/SP/G                  HT/PER
                 (UTC)          (F)     (DEG/KT/KT) (MB)    (MI)  (FT/S)
NY HARB ENTRANCE 1950            36 51  300/ 17/ 23 1027.4          2/ 3
20 S FIRE ISLAND 2050            37 52  300/ 17/ 23 1027.4          4/ 5
GREAT SOUTH BAY  2030            35 39                N/A
23 SSW MONTAUK P 1950            36 54  290/ 19/ 27 1026.6          4/ 5
15 E BARNEGAT LI 2030               51                N/A           2/ 3
HUDSON CANYON    1950            39 55              1027.1          5/ 6
KINGS POINT      2042            35 45              1027.7
EXECUTION ROCKS  2045            37     290/ 12/ 17   N/A
CENTRAL LI SOUND NOT AVBL
EASTERN LI SOUND NOT AVBL
ROBBINS REEF     2042            35     280/ 14/ 16 1028.2
$$


>>>>>>>>>>>>>>>>>>>>>>>>>>>> KEY <<<<<<<<<<<<<<<<<<<<<<<<<<<
>                                                          <
>     SKY/WX - Sky Condition/Present Weather               <
>     TMP    - Temperature in Fahrenheit                   <
>     DP     - Dew Point in Fahrenheit                     <
>     RH     - Relative Humidity in Percent                <
>     WIND   - Direction (from) and Speed in MPH           <
>     PRES   - Mean Sea Level Pressure (inches of Hg)      <
>     WCI    - Wind Chill Index                            <
>     VSB    - VISIBILITY IN MILES                         <
>     HX     - HEAT INDEX                                  <
>     TC     - TEMPERATURE IN CELSIUS                      <
>     VRB    - VARIABLE WIND DIRECTION                     <
>                                                          <
>>>>>>>>>>>>>>>>>>>>>>>>>>>> KEY <<<<<<<<<<<<<<<<<<<<<<<<<<<




USA.gov is the U.S. government's official web portal to all federal, state and local government web resources and services.